{"data":{"norad_id":57199,"epoch":"2026-09-19T21:40:57.414720Z","epoch_age_seconds":65905,"freshness":"FRESH","line1":"1 57199U 23091AK  26262.90344230  .00016007  00000+0  37780-3 0  9990","line2":"2 57199  97.4990 335.8954 0007170  94.1467 266.0599 15.41934770179346","mean_motion":15.4193477,"eccentricity":0.000717,"inclination_deg":97.499,"raan_deg":335.8954,"arg_perigee_deg":94.1467,"mean_anomaly_deg":266.0599,"bstar":0.0003778,"rev_number":17934,"period_min":93.38916457536,"perigee_km":435.51067004572,"apogee_km":445.28845147385,"semimajor_km":6818.5365607598,"source":"CELESTRAK","updated_at":"2026-09-20T09:00:48.036526Z"}}